| time (UTC) | temp C | wind direction | speed KPH | gust KPH | rain 1hr cm | rain 24hr cm | rain mn cm | humidity % | barometer mb |
| 20260506103057 | 20 | 360 | 4.8 | 8.0 | 0.00 | 0.00 | 0.00 | 30 | 1012.9 |
| 20260506101554 | 20 | 360 | 4.8 | 8.0 | 0.00 | 0.00 | 0.00 | 31 | 1012.7 |
| 20260506100051 | 20 | 360 | 3.2 | 6.4 | 0.00 | 0.00 | 0.00 | 31 | 1012.7 |
| 20260506094551 | 20 | 360 | 1.6 | 8.0 | 0.00 | 0.00 | 0.00 | 30 | 1012.7 |
| 20260506093050 | 20 | 360 | 4.8 | 9.7 | 0.00 | 0.00 | 0.00 | 29 | 1012.8 |
| 20260506091554 | 20 | 360 | 1.6 | 6.4 | 0.00 | 0.00 | 0.00 | 29 | 1012.8 |
| 20260506090053 | 20 | 360 | 3.2 | 9.7 | 0.00 | 0.00 | 0.00 | 28 | 1012.7 |
| 20260506084548 | 21 | 360 | 6.4 | 12.9 | 0.00 | 0.00 | 0.00 | 28 | 1012.8 |
| 20260506083041 | 21 | 360 | 11.3 | 16.1 | 0.00 | 0.00 | 0.00 | 27 | 1012.8 |
| 20260506081540 | 21 | 360 | 11.3 | 19.3 | 0.00 | 0.00 | 0.00 | 26 | 1012.9 |
| 20260506073035 | 21 | 360 | 11.3 | 16.1 | 0.00 | 0.00 | 0.00 | 26 | 1013.0 |
| 20260506071532 | 22 | 360 | 11.3 | 16.1 | 0.00 | 0.00 | 0.00 | 25 | 1013.0 |
| 20260506061526 | 22 | 360 | 6.4 | 12.9 | 0.00 | 0.00 | 0.00 | 26 | 1012.5 |
| 20260506044514 | 23 | 326 | 0.0 | 4.8 | 0.00 | 0.00 | 0.00 | 25 | 1012.0 |
| 20260506043014 | 23 | 325 | 1.6 | 8.0 | 0.00 | 0.00 | 0.00 | 24 | 1011.9 |
| 20260506041513 | 24 | 319 | 3.2 | 9.7 | 0.00 | 0.00 | 0.00 | 22 | 1011.7 |
| 20260506040021 | 25 | 320 | 3.2 | 9.7 | 0.00 | 0.00 | 0.00 | 22 | 1011.4 |
| 20260506034519 | 25 | 331 | 4.8 | 9.7 | 0.00 | 0.00 | 0.00 | 21 | 1011.5 |
| 20260506033011 | 25 | 340 | 6.4 | 9.7 | 0.00 | 0.00 | 0.00 | 20 | 1011.1 |
| 20260506031511 | 25 | 325 | 8.0 | 14.5 | 0.00 | 0.00 | 0.00 | 20 | 1011.0 |
| 20260506030025 | 26 | 336 | 6.4 | 12.9 | 0.00 | 0.00 | 0.00 | 20 | 1010.8 |
| 20260506024517 | 26 | 355 | 11.3 | 16.1 | 0.00 | 0.00 | 0.00 | 19 | 1010.6 |
| 20260506023012 | 26 | 355 | 9.7 | 20.9 | 0.00 | 0.00 | 0.00 | 19 | 1010.2 |
| 20260506021508 | 26 | 336 | 14.5 | 24.1 | 0.00 | 0.00 | 0.00 | 18 | 1010.3 |
| 20260506020008 | 27 | 333 | 9.7 | 19.3 | 0.00 | 0.00 | 0.00 | 18 | 1010.1 |
| 20260506014506 | 27 | 355 | 17.7 | 24.1 | 0.00 | 0.00 | 0.00 | 17 | 1010.0 |
| 20260506013008 | 27 | 360 | 16.1 | 29.0 | 0.00 | 0.00 | 0.00 | 17 | 1009.7 |
| 20260506011505 | 27 | 346 | 16.1 | 22.5 | 0.00 | 0.00 | 0.00 | 17 | 1009.5 |
| 20260506010010 | 27 | 355 | 17.7 | 25.7 | 0.00 | 0.00 | 0.00 | 16 | 1009.2 |
| 20260506004505 | 28 | 360 | 24.1 | 32.2 | 0.00 | 0.00 | 0.00 | 16 | 1008.9 |
| 20260506003004 | 28 | 351 | 25.7 | 37.0 | 0.00 | 0.00 | 0.00 | 17 | 1009.2 |
| 20260506001502 | 29 | 355 | 17.7 | 30.6 | 0.00 | 0.00 | 0.00 | 16 | 1009.0 |
| 20260506000002 | 30 | 360 | 9.7 | 16.1 | 0.00 | 0.00 | 0.00 | 16 | 1008.7 |
| 20260505234504 | 30 | 336 | 12.9 | 22.5 | 0.00 | 0.00 | 0.00 | 13 | 1008.5 |
| 20260505233102 | 31 | 344 | 0.0 | 9.7 | 0.00 | 0.00 | 0.00 | 13 | 1008.4 |
| 20260505231559 | 31 | 333 | 4.8 | 19.3 | 0.00 | 0.00 | 0.00 | 15 | 1008.6 |
| 20260505230106 | 30 | 360 | 14.5 | 25.7 | 0.00 | 0.00 | 0.00 | 16 | 1008.7 |
| 20260505224556 | 31 | 339 | 9.7 | 20.9 | 0.00 | 0.00 | 0.00 | 15 | 1008.8 |
| 20260505223107 | 31 | 316 | 11.3 | 20.9 | 0.00 | 0.00 | 0.00 | 14 | 1009.1 |
| 20260505221553 | 31 | 342 | 9.7 | 17.7 | 0.00 | 0.00 | 0.00 | 15 | 1009.2 |
| 20260505220051 | 31 | 317 | 11.3 | 19.3 | 0.00 | 0.00 | 0.00 | 14 | 1009.4 |
| 20260505214549 | 31 | 318 | 6.4 | 22.5 | 0.00 | 0.00 | 0.00 | 15 | 1009.7 |
| 20260505213055 | 31 | 314 | 9.7 | 19.3 | 0.00 | 0.00 | 0.00 | 15 | 1010.0 |
| 20260505211543 | 31 | 284 | 12.9 | 29.0 | 0.00 | 0.00 | 0.00 | 14 | 1010.5 |
| 20260505210042 | 31 | 285 | 6.4 | 29.0 | 0.00 | 0.00 | 0.00 | 15 | 1010.7 |
| 20260505204541 | 31 | 308 | 12.9 | 20.9 | 0.00 | 0.00 | 0.00 | 15 | 1010.9 |
| 20260505203046 | 31 | 317 | 11.3 | 27.4 | 0.00 | 0.00 | 0.00 | 15 | 1011.1 |
| 20260505201538 | 30 | 252 | 1.6 | 19.3 | 0.00 | 0.00 | 0.00 | 17 | 1011.3 |
| 20260505200036 | 29 | 198 | 9.7 | 22.5 | 0.00 | 0.00 | 0.00 | 17 | 1011.6 |
| 20260505194534 | 29 | 292 | 6.4 | 27.4 | 0.00 | 0.00 | 0.00 | 17 | 1011.7 |
| 20260505193033 | 29 | 287 | 20.9 | 29.0 | 0.00 | 0.00 | 0.00 | 17 | 1011.9 |
| 20260505191532 | 30 | 215 | 4.8 | 16.1 | 0.00 | 0.00 | 0.00 | 17 | 1011.8 |
| 20260505190033 | 28 | 198 | 8.0 | 19.3 | 0.00 | 0.00 | 0.00 | 17 | 1012.0 |
| 20260505184529 | 28 | 221 | 8.0 | 27.4 | 0.00 | 0.00 | 0.00 | 18 | 1012.3 |
| 20260505183027 | 28 | 360 | 17.7 | 29.0 | 0.00 | 0.00 | 0.00 | 17 | 1012.6 |
| 20260505181527 | 28 | 360 | 14.5 | 29.0 | 0.00 | 0.00 | 0.00 | 17 | 1012.6 |
| 20260505180025 | 28 | 277 | 4.8 | 25.7 | 0.00 | 0.00 | 0.00 | 17 | 1012.7 |
| 20260505174524 | 28 | 297 | 16.1 | 24.1 | 0.00 | 0.00 | 0.00 | 17 | 1012.7 |
| 20260505173037 | 27 | 279 | 8.0 | 25.7 | 0.00 | 0.00 | 0.00 | 19 | 1012.7 |
| 20260505171522 | 28 | 287 | 9.7 | 27.4 | 0.00 | 0.00 | 0.00 | 18 | 1012.8 |
| 20260505170026 | 28 | 360 | 12.9 | 29.0 | 0.00 | 0.00 | 0.00 | 18 | 1012.8 |
| 20260505164537 | 27 | 309 | 4.8 | 14.5 | 0.00 | 0.00 | 0.00 | 19 | 1012.7 |
| 20260505163015 | 27 | 325 | 8.0 | 22.5 | 0.00 | 0.00 | 0.00 | 19 | 1012.7 |
| 20260505161513 | 27 | 319 | 8.0 | 20.9 | 0.00 | 0.00 | 0.00 | 19 | 1012.7 |
| 20260505153010 | 26 | 73 | 4.8 | 9.7 | 0.00 | 0.00 | 0.00 | 25 | 1012.7 |
| 20260505151503 | 26 | 198 | 1.6 | 6.4 | 0.00 | 0.00 | 0.00 | 28 | 1012.8 |
| 20260505124538 | 15 | 360 | 0.0 | 4.8 | 0.00 | 0.00 | 0.00 | 47 | 1011.7 |
| 20260505123031 | 16 | 360 | 3.2 | 8.0 | 0.00 | 0.00 | 0.00 | 44 | 1011.5 |
| 20260505121536 | 16 | 360 | 3.2 | 4.8 | 0.00 | 0.00 | 0.00 | 41 | 1011.4 |
| 20260505120027 | 16 | 360 | 3.2 | 6.4 | 0.00 | 0.00 | 0.00 | 42 | 1011.3 |
| 20260505114534 | 17 | 360 | 1.6 | 3.2 | 0.00 | 0.00 | 0.00 | 39 | 1011.2 |
| 20260505113025 | 16 | 360 | 1.6 | 4.8 | 0.00 | 0.00 | 0.00 | 41 | 1010.8 |
| 20260505111530 | 17 | 360 | 0.0 | 3.2 | 0.00 | 0.00 | 0.00 | 37 | 1010.8 |